Location: Bernay
(48.6766°N, 2.9386°E)
Time: 14:30:24
(UTC+00:00)

SAR-Lupe-4 - Visible Passes

Search period start: 11 April 2026 00:00
Search period end: 21 April 2026 00:00
Orbit: 480 x 483 km, 98.1° (Epoch: 10 January)

Date Brightness Start Highest point End Pass type
(mag) Time Alt. Az. Time Alt. Az. Time Alt. Az.
13 Apr 6.7 19:34:35 10° WSW 19:36:21 13° W 19:38:09 10° WNW visible
17 Apr 6.4 19:19:55 10° SW 19:22:31 19° W 19:25:09 10° NW visible
20 Apr 6.6 19:33:27 10° SW 19:35:29 15° W 19:37:31 10° WNW visible
